#timestamp,LO_Frequency,Hit,StdDev 
1591884015.7,286046998.6,N
1591884035.5,286046998.4,N
1591884055.4,286046999.6,N
1591884075.2,286046999.6,N
1591884095.0,286046998.8,N
1591884095.9,286046998.8,N
1591884115.8,286046996.5,Y
1591884135.6,286046998.8,P
1591884155.5,286046998.9,P
1591884175.3,286047001.2,P
1591884195.1,286046999.6,N
1591884215.9,286046997.7,N
1591884235.7,286046995.5,Y
1591884255.5,286046996.3,P
1591884275.7,286046996.3,N
1591884295.6,286046992.1,P
1591884315.4,286046992.2,Y
1591884335.3,286046996.7,P
1591884355.1,286046996.9,P
1591884356.0,286046996.9,P
1591884375.8,286046997.0,Y
1591884395.7,286047000.0,P
1591884415.5,286047000.5,N
1591884435.4,286047000.1,N
1591884455.2,286047001.0,N
1591884475.0,286047002.6,N
1591884475.9,286047002.6,N
1591884495.8,286047001.8,N
1591884515.6,286047002.0,N
1591884535.4,286047004.4,N
1591884555.3,286047001.3,N
1591884575.1,286047001.5,N
1591884595.9,286047004.4,N
1591884615.7,286047003.2,N
1591884635.5,286047004.3,N
1591884655.4,286047001.4,N
1591884675.2,286047003.1,N
1591884695.1,286047003.2,N
1591884696.0,286047003.2,N
1591884715.8,286047011.9,Y
1591884735.6,286047001.2,P
1591884755.5,286046999.3,N
1591884775.3,286047000.8,N
1591884795.2,286046998.7,N
1591884815.9,286047001.1,N
1591884835.7,286047000.6,N
1591884855.6,286046998.2,N
1591884875.4,286047000.8,N
1591884895.3,286046999.9,N
1591884915.1,286047001.7,N
1591884916.0,286047001.7,N
1591884935.8,286047001.4,N
1591884955.7,286047001.4,N
1591884975.5,286047003.6,Y
1591884995.3,286047003.7,P
1591885015.2,286047003.2,N
1591885035.0,286047005.6,P
1591885035.9,286047005.6,Y
1591885055.8,286047000.9,P
1591885075.6,286047000.7,N
1591885095.4,286047001.2,N
1591885115.3,286046998.9,N
1591885135.1,286046996.7,N
1591885155.9,286047000.0,N
1591885175.7,286046998.3,N
1591885195.5,286047000.7,N
1591885215.4,286046999.9,N
1591885235.2,286046998.1,N
1591885255.1,286047002.5,N
1591885256.0,286047002.5,N
1591885275.8,286046999.7,N
1591885295.6,286047000.1,N
1591885315.5,286047002.0,N
1591885335.4,286047002.5,N
1591885355.2,286047002.5,N
1591885375.1,286047002.0,N
1591885376.0,286047002.0,N
1591885395.8,286047000.4,N
1591885415.6,286047000.9,N
1591885435.5,286047000.1,N
1591885455.3,286046998.6,N
1591885475.2,286046998.0,N
1591885495.0,286046997.5,N
1591885495.9,286046997.5,N
1591885515.8,286046999.2,N
1591885535.6,286046999.9,N
1591885555.4,286047002.0,N
1591885575.3,286047011.9,Y
1591885595.1,286047002.2,P
1591885615.8,286047002.3,N
1591885635.7,286047001.8,N
1591885655.5,286047004.2,Y
1591885675.4,286047000.2,P
1591885695.2,286047002.1,N
1591885715.0,286047004.2,P
1591885715.9,286047004.2,N
1591885735.8,286047000.6,N
1591885755.6,286047001.2,N
1591885775.5,286047001.1,N
1591885795.3,286047002.1,N
1591885815.1,286046999.7,N
1591885835.9,286047000.3,N
1591885855.7,286047001.9,N
1591885875.5,286047002.2,N
1591885895.4,286047001.8,N
1591885915.2,286047001.3,N
1591885935.1,286047001.6,N
1591885936.0,286047001.6,N
1591885955.8,286047004.3,Y
1591885975.7,286047002.6,P
1591885995.5,286047002.4,P
1591886015.3,286047002.4,P
1591886035.2,286047000.0,N
1591886055.0,286047001.1,N
1591886055.9,286047001.1,N
1591886075.8,286047000.1,N
1591886095.6,286046999.9,N
1591886115.4,286047004.4,Y
1591886135.3,286047000.7,P
1591886155.1,286046998.3,P
1591886175.9,286046998.2,N
1591886195.8,286046999.7,N
1591886215.6,286046999.4,N
1591886235.4,286046998.5,N
1591886255.3,286046999.3,N
1591886275.1,286046999.2,N
1591886295.8,286046998.3,N
1591886315.7,286046997.2,N
1591886335.5,286046995.1,Y
1591886355.4,286046997.4,P
1591886375.2,286046997.3,P
1591886395.0,286046996.5,P
1591886395.9,286046996.5,Y
1591886415.8,286046999.3,P
1591886435.6,286047001.0,N
1591886455.5,286047000.0,N
1591886475.3,286047002.7,N
1591886495.1,286047002.3,N
1591886515.9,286047002.5,N
1591886535.7,286047001.4,N
1591886555.6,286047005.5,Y
1591886575.4,286047003.3,P
1591886595.2,286047003.2,N
1591886615.1,286047003.6,P
1591886616.0,286047003.6,Y
1591886635.8,286047002.4,P
1591886655.7,286046999.8,N
1591886675.5,286047000.5,N
1591886695.3,286046998.3,N
1591886715.2,286046999.3,N
1591886735.0,286046999.2,N
1591886735.9,286046999.2,N
1591886755.8,286046998.5,N
1591886775.6,286047000.6,N
1591886795.4,286047000.2,N
1591886815.3,286046998.2,N
1591886835.1,286046998.6,N
1591886855.9,286046996.5,N
1591886875.7,286047000.7,N
1591886895.5,286047000.3,N
1591886915.4,286046998.2,N
1591886935.2,286046999.0,N
1591886955.0,286046995.2,Y
1591886956.0,286046995.2,P
1591886975.8,286046995.1,N
1591886995.6,286046997.4,N
1591887015.5,286046996.7,N
1591887035.3,286047001.2,N
1591887055.2,286047000.0,N
1591887075.9,286046999.0,N
1591887095.7,286046996.5,N
1591887115.6,286046999.2,N
1591887135.4,286046999.2,N
1591887155.2,286046999.0,N
1591887175.1,286046999.3,N
1591887176.0,286046999.3,N
1591887195.8,286046998.6,N
1591887215.7,286047000.1,N
1591887235.5,286047002.6,N
1591887255.3,286047001.0,N
1591887275.2,286046998.3,N
1591887295.0,286046998.9,N
1591887295.9,286046998.9,N
1591887345.8,286046999.0,E
1591887355.7,286047000.4,N
1591887375.5,286047002.0,P
1591887395.4,286047001.8,N
1591887415.2,286047002.6,Y
1591887435.3,286046998.4,P
1591887455.1,286047000.0,N
1591887475.9,286047000.8,N
1591887495.7,286046998.9,N
1591887515.5,286047000.8,N
1591887535.4,286046998.3,N
1591887555.2,286046998.9,N
1591887575.1,286046998.5,N
1591887576.0,286046998.5,N
1591887595.8,286046998.6,N
